Powrót do katalogu

TFSTAR

AktywnyNaukaPO
NORAD 43834·PAYLOAD·🇨🇳 China
Ta nazwa satelity nie została jeszcze potwierdzona przez oficjalne źródła.

Wystrzelony Dec 7, 2018 z Jiuquan Satellite Launch Center

Loading…

Następne Przeloty (najbliższe 24 godziny)

TLE

ŚwieżeSource: Space-Track

Epoka: Sep 14, 2026, 05:34 UTC

1 43834U 18102D   26257.23205286  .00181132  00000-0  75484-3 0  9991
2 43834  97.3356 351.4409 0001122 187.2874 172.8381 15.85219582431268

Śledź TFSTAR w czasie rzeczywistym z AllMySat

Download on the App Store